Simultaneous Nadir Overpasses (SNOs) Predictions

Prediction of SNOs between FY3D and TERRA Satellite Orbit:

Table of predicted SNOs for the next 14.0 days since TLE Epoch: 7/16/2022
Index Date (FY3D) Time (FY3D) Lat,Lon (FY3D) SZA (FY3D ) Date (TERRA) Time (TERRA) Lat,Lon (TERRA) SZA (TERRA ) Distance(km) Time Diff (sec)
1 07/18/2022 05:54:36 71.71, 91.18 50.60 07/18/2022 05:54:54 71.73, 91.22 50.62 2.73 18
2 07/18/2022 06:45:18 -71.62,-101.33 129.49 07/18/2022 06:44:24 -71.61,-101.36 129.50 1.43 54
3 07/20/2022 20:31:05 72.26,-128.92 51.65 07/20/2022 20:32:14 72.20,-127.37 51.57 53.29 69
4 07/20/2022 21:21:38 -71.70, 39.46 128.92 07/20/2022 21:21:51 -71.70, 39.41 128.93 1.88 13
5 07/20/2022 22:12:24 71.63,-153.10 51.01 07/20/2022 22:11:18 71.60,-153.12 50.99 3.29 66
6 07/23/2022 11:58:03 -72.05, 179.76 128.05 07/23/2022 11:59:15 -71.94,-179.58 128.17 25.83 72
7 07/23/2022 12:48:44 71.72, -12.32 51.63 07/23/2022 12:48:44 71.73, -12.29 51.63 1.26 0
8 07/23/2022 13:39:26 -71.62, 155.18 128.47 07/23/2022 13:38:14 -71.61, 155.14 128.48 1.75 72
9 07/26/2022 03:25:04 71.82, 128.45 52.28 07/26/2022 03:26:10 71.84, 128.51 52.30 3.41 66
10 07/26/2022 04:15:46 -71.71, -64.04 127.82 07/26/2022 04:15:40 -71.73, -64.05 127.81 1.48 6
11 07/26/2022 05:06:24 71.23, 104.13 51.70 07/26/2022 05:05:14 71.24, 102.80 51.72 47.74 70
12 07/28/2022 18:52:05 -71.81, 76.73 127.13 07/28/2022 18:53:05 -71.83, 76.73 127.12 2.15 60
13 07/28/2022 19:42:50 71.69,-115.75 52.76 07/28/2022 19:42:32 71.72,-115.81 52.79 3.31 18



Historial Predications of SNOs between FY3D and TERRA
